QPF
0.03 0.09 0.16 0.12 0.07 0.05 0.04 0.03 0.05 0.05 0.04 0.03 0.03 0.03 0.03 0.04 0.05 0.05 0.03 0.03 0.03 0.03 0.03 0.02 0.03 0.03 0.03 0.02 0.02 0.03 0.03 0.03 0.02 0.02 0.02 0.03 0.04 0.05 0.08 0.08 0.06 0.06 0.09
0.03 0.09 0.13 0.08 0.05 0.04 0.04 0.04 0.05 0.05 0.03 0.02 0.02 0.02 0.02 0.02 0.03 0.03 0.03 0.03 0.03 0.02 0.03 0.03 0.03 0.03 0.03 0.03 0.04 0.04 0.04 0.03 0.02 0.02 0.02 0.03 0.04 0.06 0.06 0.05 0.05 0.05 0.08
0.03 0.06 0.10 0.07 0.04 0.04 0.05 0.04 0.04 0.03 0.03 0.02 0.02 0.01 0.01 0.02 0.02 0.01 0.02 0.02 0.02 0.02 0.03 0.02 0.02 0.03 0.02 0.03 0.03 0.03 0.02 0.02 0.02 0.01 0.01 0.01 0.02 0.05 0.05 0.05 0.05 0.04 0.06
0.03 0.03 0.08 0.08 0.05 0.03 0.03 0.04 0.04 0.02 0.03 0.02 0.02 0.01 0.01 0.02 0.02 0.01 0.02 0.02 0.03 0.03 0.03 0.02 0.01 0.01 0.01 0.01 0.02 0.02 0.02 0.03 0.02 0.01 0.00 0.00 0.01 0.03 0.03 0.05 0.06 0.04 0.04
0.02 0.02 0.07 0.09 0.08 0.04 0.04 0.04 0.03 0.02 0.02 0.02 0.01 0.01 0.01 0.01 0.01 0.01 0.02 0.02 0.03 0.04 0.04 0.03 0.02 0.01 0.02 0.02 0.02 0.03 0.03 0.03 0.02 0.01 0.00 0.00 0.01 0.03 0.03 0.05 0.06 0.06 0.04
0.01 0.02 0.07 0.10 0.07 0.04 0.04 0.03 0.03 0.03 0.02 0.01 0.01 0.01 0.01 0.01 0.01 0.01 0.01 0.01 0.02 0.02 0.03 0.02 0.01 0.01 0.02 0.03 0.03 0.03 0.03 0.02 0.01 0.00 0.01 0.01 0.01 0.04 0.03 0.03 0.04 0.03 0.04
0.00 0.02 0.06 0.08 0.06 0.04 0.03 0.03 0.03 0.03 0.01 0.01 0.01 0.00 0.01 0.01 0.01 0.01 0.01 0.01 0.01 0.01 0.02 0.02 0.02 0.02 0.02 0.03 0.03 0.03 0.02 0.02 0.00 0.01 0.02 0.01 0.02 0.03 0.02 0.03 0.03 0.04 0.05
0.01 0.02 0.04 0.07 0.05 0.03 0.02 0.03 0.02 0.02 0.01 0.00 0.00 0.00 0.00 0.00 0.01 0.01 0.01 0.01 0.01 0.01 0.01 0.01 0.01 0.01 0.02 0.02 0.03 0.02 0.02 0.02 0.01 0.02 0.03 0.02 0.04 0.03 0.03 0.03 0.04 0.04 0.05
0.01 0.01 0.02 0.04 0.04 0.03 0.02 0.02 0.01 0.01 0.01 0.00 0.00 0.00 0.00 0.00 0.00 0.00 0.01 0.01 0.01 0.01 0.01 0.01 0.01 0.01 0.02 0.03 0.03 0.03 0.03 0.03 0.01 0.01 0.02 0.02 0.04 0.04 0.04 0.05 0.04 0.04 0.03
0.02 0.01 0.01 0.01 0.02 0.01 0.01 0.01 0.01 0.00 0.00 0.00 0.00 0.00 0.00 0.00 0.00 0.00 0.00 0.00 0.01 0.01 0.01 0.01 0.02 0.02 0.03 0.03 0.02 0.02 0.02 0.01 0.01 0.00 0.01 0.03 0.06 0.06 0.07 0.06 0.04 0.02 0.02
0.01 0.01 0.00 0.00 0.00 0.00 0.00 0.00 0.00 0.00 0.00 0.00 0.00 0.00 0.00 0.00 0.00 0.00 0.00 0.01 0.02 0.02 0.01 0.01 0.02 0.03 0.03 0.03 0.03 0.02 0.01 0.00 0.00 0.01 0.02 0.07 0.09 0.08 0.06 0.07 0.05 0.03 0.02
0.00 0.00 0.00 0.00 0.00 0.00 0.00 0.00 0.00 0.00 0.00 0.00 0.00 0.00 0.00 0.00 0.00 0.00 0.00 0.01 0.01 0.01 0.02 0.02 0.02 0.02 0.01 0.01 0.02 0.01 0.01 0.00 0.00 0.01 0.03 0.08 0.10 0.09 0.08 0.07 0.06 0.03 0.03
0.00 0.00 0.00 0.00 0.00 0.00 0.00 0.00 0.00 0.00 0.00 0.00 0.00 0.00 0.00 0.00 0.00 0.00 0.00 0.00 0.00 0.00 0.00 0.01 0.01 0.00 0.01 0.01 0.01 0.00 0.01 0.01 0.00 0.01 0.04 0.09 0.11 0.11 0.09 0.07 0.07 0.04 0.04
0.00 0.00 0.00 0.00 0.00 0.00 0.00 0.00 0.00 0.00 0.00 0.00 0.00 0.00 0.00 0.00 0.00 0.00 0.00 0.00 0.00 0.00 0.00 0.00 0.00 0.00 0.01 0.02 0.01 0.01 0.00 0.00 0.01 0.02 0.05 0.09 0.13 0.14 0.13 0.11 0.08 0.06 0.05
0.00 0.00 0.00 0.00 0.00 0.00 0.00 0.00 0.00 0.00 0.00 0.00 0.00 0.00 0.00 0.00 0.00 0.00 0.00 0.00 0.00 0.00 0.00 0.00 0.00 0.00 0.01 0.01 0.01 0.01 0.01 0.01 0.01 0.01 0.04 0.07 0.09 0.13 0.16 0.13 0.09 0.08 0.07
0.00 0.00 0.00 0.00 0.00 0.00 0.00 0.00 0.00 0.00 0.00 0.00 0.00 0.00 0.00 0.00 0.00 0.00 0.00 0.00 0.00 0.00 0.00 0.00 0.00 0.00 0.01 0.00 0.01 0.01 0.01 0.01 0.01 0.01 0.04 0.03 0.05 0.08 0.13 0.14 0.08 0.07 0.07
0.00 0.00 0.00 0.00 0.00 0.00 0.00 0.00 0.00 0.00 0.00 0.00 0.00 0.00 0.00 0.00 0.00 0.00 0.00 0.00 0.00 0.00 0.00 0.00 0.01 0.01 0.00 0.00 0.01 0.01 0.01 0.01 0.01 0.02 0.04 0.02 0.03 0.07 0.10 0.11 0.08 0.07 0.07
0.00 0.00 0.00 0.00 0.00 0.00 0.00 0.00 0.00 0.00 0.00 0.00 0.00 0.00 0.00 0.00 0.00 0.00 0.00 0.00 0.00 0.00 0.00 0.00 0.00 0.00 0.00 0.01 0.01 0.01 0.01 0.01 0.01 0.03 0.03 0.02 0.02 0.03 0.06 0.07 0.07 0.07 0.07
0.00 0.00 0.00 0.00 0.00 0.00 0.00 0.00 0.00 0.00 0.00 0.00 0.00 0.00 0.00 0.00 0.00 0.00 0.00 0.00 0.00 0.00 0.00 0.00 0.00 0.00 0.01 0.01 0.01 0.01 0.02 0.03 0.03 0.04 0.04 0.03 0.03 0.02 0.02 0.03 0.04 0.05 0.05
0.00 0.00 0.00 0.00 0.00 0.00 0.00 0.00 0.00 0.00 0.00 0.00 0.00 0.00 0.00 0.00 0.00 0.00 0.00 0.00 0.00 0.00 0.00 0.01 0.00 0.01 0.01 0.01 0.01 0.01 0.02 0.04 0.05 0.06 0.06 0.05 0.04 0.04 0.02 0.01 0.02 0.03 0.03
0.00 0.00 0.00 0.00 0.00 0.00 0.00 0.00 0.00 0.00 0.00 0.00 0.00 0.00 0.00 0.00 0.00 0.00 0.00 0.00 0.00 0.00 0.01 0.01 0.01 0.01 0.01 0.01 0.01 0.02 0.03 0.05 0.06 0.06 0.06 0.05 0.03 0.03 0.02 0.01 0.01 0.02 0.02
0.00 0.00 0.00 0.00 0.00 0.00 0.00 0.00 0.00 0.00 0.00 0.00 0.00 0.00 0.01 0.00 0.00 0.00 0.00 0.00 0.00 0.01 0.01 0.01 0.01 0.02 0.01 0.01 0.03 0.04 0.03 0.04 0.05 0.04 0.03 0.03 0.03 0.02 0.02 0.02 0.02 0.01 0.01
0.00 0.00 0.00 0.00 0.00 0.00 0.00 0.00 0.00 0.00 0.00 0.00 0.00 0.00 0.01 0.00 0.00 0.00 0.00 0.00 0.00 0.00 0.01 0.01 0.01 0.02 0.01 0.01 0.02 0.03 0.03 0.02 0.02 0.02 0.02 0.02 0.02 0.02 0.03 0.03 0.01 0.01 0.01
0.00 0.00 0.00 0.00 0.00 0.00 0.00 0.00 0.00 0.00 0.00 0.00 0.00 0.01 0.01 0.00 0.00 0.00 0.00 0.00 0.00 0.00 0.00 0.00 0.00 0.00 0.00 0.01 0.01 0.01 0.02 0.02 0.02 0.02 0.02 0.02 0.02 0.03 0.04 0.04 0.02 0.01 0.01
0.00 0.00 0.00 0.00 0.00 0.00 0.00 0.00 0.00 0.00 0.00 0.00 0.00 0.01 0.00 0.00 0.00 0.00 0.00 0.00 0.00 0.00 0.00 0.00 0.00 0.00 0.00 0.00 0.00 0.01 0.01 0.02 0.02 0.02 0.01 0.02 0.02 0.03 0.04 0.03 0.03 0.02 0.01
0.00 0.00 0.00 0.00 0.00 0.00 0.00 0.00 0.00 0.00 0.00 0.00 0.00 0.00 0.00 0.00 0.00 0.00 0.00 0.00 0.00 0.00 0.00 0.00 0.00 0.00 0.00 0.00 0.01 0.01 0.01 0.02 0.01 0.02 0.01 0.01 0.02 0.03 0.03 0.02 0.02 0.02 0.01
MSLP
1014.56 1014.01 1013.61 1013.39 1013.35 1013.44 1013.61 1013.78 1013.89 1013.93 1013.88 1013.78 1013.68 1013.61 1013.61 1013.67 1013.78 1013.91 1014.02 1014.07 1014.06 1014.00 1013.92 1013.83 1013.78 1013.77 1013.81 1013.88 1013.95 1013.98 1013.97 1013.90 1013.79 1013.67 1013.56 1013.49 1013.46 1013.47 1013.51 1013.54 1013.54 1013.51 1013.45
1014.64 1014.15 1013.81 1013.65 1013.65 1013.76 1013.93 1014.09 1014.18 1014.20 1014.14 1014.05 1013.97 1013.94 1013.98 1014.08 1014.21 1014.34 1014.43 1014.45 1014.40 1014.30 1014.18 1014.07 1014.00 1013.97 1013.99 1014.02 1014.03 1014.01 1013.94 1013.82 1013.69 1013.57 1013.49 1013.45 1013.48 1013.53 1013.58 1013.61 1013.58 1013.50 1013.37
1014.69 1014.27 1014.00 1013.89 1013.94 1014.08 1014.26 1014.41 1014.49 1014.49 1014.43 1014.35 1014.29 1014.30 1014.37 1014.49 1014.62 1014.73 1014.78 1014.75 1014.65 1014.50 1014.34 1014.21 1014.11 1014.07 1014.06 1014.06 1014.04 1013.97 1013.87 1013.74 1013.61 1013.51 1013.47 1013.49 1013.56 1013.64 1013.69 1013.68 1013.58 1013.41 1013.18
1014.76 1014.41 1014.19 1014.15 1014.24 1014.41 1014.60 1014.75 1014.82 1014.80 1014.74 1014.66 1014.62 1014.64 1014.72 1014.84 1014.95 1015.03 1015.02 1014.94 1014.78 1014.59 1014.39 1014.24 1014.14 1014.09 1014.07 1014.05 1014.01 1013.93 1013.81 1013.68 1013.57 1013.52 1013.53 1013.59 1013.69 1013.76 1013.78 1013.68 1013.48 1013.17 1012.80
1014.88 1014.58 1014.43 1014.43 1014.56 1014.76 1014.95 1015.09 1015.13 1015.10 1015.02 1014.94 1014.90 1014.92 1015.00 1015.09 1015.18 1015.20 1015.14 1015.00 1014.79 1014.56 1014.35 1014.20 1014.10 1014.06 1014.05 1014.04 1013.99 1013.91 1013.80 1013.69 1013.61 1013.59 1013.64 1013.73 1013.82 1013.86 1013.79 1013.57 1013.21 1012.73 1012.20
1015.08 1014.83 1014.72 1014.77 1014.92 1015.12 1015.30 1015.41 1015.43 1015.37 1015.27 1015.17 1015.12 1015.13 1015.18 1015.25 1015.29 1015.27 1015.16 1014.97 1014.73 1014.48 1014.27 1014.13 1014.06 1014.05 1014.06 1014.06 1014.03 1013.95 1013.86 1013.76 1013.71 1013.72 1013.79 1013.88 1013.93 1013.90 1013.71 1013.33 1012.78 1012.10 1011.39
1015.36 1015.15 1015.08 1015.15 1015.31 1015.50 1015.66 1015.72 1015.70 1015.59 1015.46 1015.34 1015.27 1015.26 1015.30 1015.34 1015.34 1015.27 1015.12 1014.89 1014.64 1014.40 1014.21 1014.11 1014.08 1014.11 1014.15 1014.17 1014.15 1014.08 1013.99 1013.90 1013.86 1013.87 1013.93 1014.00 1013.99 1013.86 1013.53 1012.98 1012.24 1011.36 1010.47
1015.71 1015.52 1015.48 1015.57 1015.73 1015.89 1016.00 1016.01 1015.93 1015.79 1015.62 1015.47 1015.39 1015.37 1015.38 1015.40 1015.37 1015.27 1015.09 1014.85 1014.60 1014.37 1014.22 1014.16 1014.18 1014.25 1014.33 1014.37 1014.35 1014.29 1014.18 1014.09 1014.03 1014.03 1014.06 1014.08 1014.00 1013.77 1013.31 1012.61 1011.69 1010.65 1009.61
1016.09 1015.93 1015.91 1016.00 1016.15 1016.28 1016.33 1016.29 1016.16 1015.97 1015.77 1015.61 1015.52 1015.49 1015.49 1015.49 1015.45 1015.33 1015.13 1014.89 1014.64 1014.45 1014.34 1014.32 1014.39 1014.50 1014.60 1014.66 1014.64 1014.55 1014.43 1014.30 1014.22 1014.18 1014.17 1014.14 1014.00 1013.68 1013.13 1012.32 1011.30 1010.15 1009.01
1016.47 1016.35 1016.35 1016.45 1016.57 1016.66 1016.66 1016.56 1016.38 1016.16 1015.94 1015.78 1015.69 1015.67 1015.68 1015.67 1015.62 1015.48 1015.28 1015.04 1014.81 1014.64 1014.56 1014.59 1014.69 1014.83 1014.95 1015.01 1014.97 1014.86 1014.70 1014.54 1014.40 1014.33 1014.28 1014.20 1014.03 1013.67 1013.08 1012.24 1011.18 1010.00 1008.83
1016.82 1016.74 1016.77 1016.87 1016.97 1017.02 1016.98 1016.84 1016.63 1016.39 1016.17 1016.02 1015.95 1015.94 1015.96 1015.96 1015.89 1015.75 1015.54 1015.30 1015.08 1014.93 1014.88 1014.94 1015.07 1015.23 1015.36 1015.40 1015.35 1015.21 1015.01 1014.79 1014.62 1014.50 1014.42 1014.32 1014.14 1013.80 1013.24 1012.44 1011.42 1010.29 1009.17
1017.12 1017.09 1017.15 1017.26 1017.35 1017.37 1017.30 1017.13 1016.90 1016.65 1016.45 1016.32 1016.28 1016.29 1016.33 1016.33 1016.27 1016.12 1015.90 1015.66 1015.45 1015.31 1015.28 1015.36 1015.51 1015.68 1015.81 1015.84 1015.77 1015.60 1015.36 1015.11 1014.89 1014.73 1014.62 1014.53 1014.38 1014.09 1013.62 1012.93 1012.04 1011.03 1010.02
1017.37 1017.39 1017.49 1017.60 1017.68 1017.69 1017.59 1017.41 1017.18 1016.96 1016.78 1016.69 1016.67 1016.71 1016.76 1016.77 1016.70 1016.55 1016.33 1016.09 1015.88 1015.75 1015.73 1015.82 1015.98 1016.16 1016.29 1016.33 1016.25 1016.05 1015.79 1015.50 1015.25 1015.06 1014.94 1014.85 1014.75 1014.54 1014.19 1013.66 1012.95 1012.12 1011.27
1017.57 1017.64 1017.76 1017.89 1017.97 1017.96 1017.86 1017.69 1017.48 1017.28 1017.14 1017.08 1017.10 1017.16 1017.21 1017.23 1017.16 1017.01 1016.79 1016.55 1016.35 1016.23 1016.22 1016.32 1016.49 1016.68 1016.83 1016.87 1016.79 1016.60 1016.32 1016.01 1015.73 1015.52 1015.38 1015.30 1015.24 1015.12 1014.90 1014.53 1014.02 1013.39 1012.73
1017.74 1017.85 1017.99 1018.12 1018.19 1018.19 1018.10 1017.95 1017.78 1017.62 1017.52 1017.49 1017.52 1017.60 1017.66 1017.67 1017.60 1017.45 1017.24 1017.02 1016.84 1016.74 1016.75 1016.86 1017.05 1017.26 1017.42 1017.48 1017.43 1017.25 1016.98 1016.67 1016.37 1016.13 1015.97 1015.88 1015.83 1015.77 1015.65 1015.43 1015.10 1014.67 1014.19
1017.88 1018.01 1018.16 1018.29 1018.37 1018.38 1018.32 1018.21 1018.08 1017.96 1017.90 1017.90 1017.94 1018.01 1018.07 1018.07 1018.01 1017.87 1017.68 1017.49 1017.34 1017.27 1017.31 1017.44 1017.65 1017.88 1018.06 1018.16 1018.14 1018.00 1017.76 1017.45 1017.15 1016.88 1016.69 1016.57 1016.50 1016.46 1016.39 1016.28 1016.08 1015.81 1015.48
1018.02 1018.16 1018.30 1018.43 1018.52 1018.55 1018.53 1018.47 1018.39 1018.32 1018.30 1018.31 1018.35 1018.41 1018.45 1018.44 1018.37 1018.25 1018.10 1017.95 1017.84 1017.82 1017.89 1018.05 1018.28 1018.53 1018.75 1018.88 1018.91 1018.82 1018.63 1018.36 1018.06 1017.78 1017.54 1017.37 1017.25 1017.17 1017.11 1017.03 1016.91 1016.74 1016.53
1018.18 1018.30 1018.43 1018.55 1018.64 1018.71 1018.74 1018.74 1018.72 1018.71 1018.71 1018.73 1018.76 1018.79 1018.80 1018.78 1018.72 1018.62 1018.51 1018.41 1018.36 1018.38 1018.48 1018.67 1018.91 1019.18 1019.43 1019.61 1019.69 1019.67 1019.54 1019.33 1019.06 1018.78 1018.51 1018.28 1018.10 1017.95 1017.84 1017.73 1017.63 1017.50 1017.35
1018.35 1018.44 1018.55 1018.66 1018.77 1018.87 1018.96 1019.03 1019.09 1019.12 1019.15 1019.17 1019.18 1019.17 1019.15 1019.11 1019.05 1018.98 1018.91 1018.87 1018.87 1018.94 1019.07 1019.27 1019.52 1019.79 1020.06 1020.28 1020.42 1020.48 1020.44 1020.31 1020.11 1019.86 1019.58 1019.31 1019.05 1018.83 1018.63 1018.47 1018.32 1018.19 1018.05
1018.53 1018.60 1018.67 1018.77 1018.90 1019.05 1019.20 1019.34 1019.47 1019.56 1019.61 1019.63 1019.61 1019.57 1019.51 1019.44 1019.38 1019.34 1019.31 1019.33 1019.38 1019.48 1019.63 1019.83 1020.07 1020.33 1020.60 1020.85 1021.05 1021.20 1021.26 1021.24 1021.14 1020.96 1020.72 1020.44 1020.14 1019.84 1019.57 1019.32 1019.10 1018.92 1018.76
1018.72 1018.75 1018.80 1018.89 1019.03 1019.22 1019.44 1019.66 1019.85 1019.99 1020.07 1020.09 1020.04 1019.97 1019.87 1019.79 1019.73 1019.70 1019.72 1019.78 1019.87 1020.00 1020.16 1020.34 1020.54 1020.78 1021.03 1021.29 1021.55 1021.78 1021.96 1022.07 1022.10 1022.03 1021.87 1021.63 1021.33 1021.01 1020.67 1020.35 1020.06 1019.81 1019.60
1018.89 1018.89 1018.92 1019.00 1019.15 1019.37 1019.65 1019.93 1020.19 1020.39 1020.49 1020.51 1020.45 1020.35 1020.23 1020.13 1020.08 1020.07 1020.13 1020.22 1020.34 1020.48 1020.62 1020.77 1020.94 1021.13 1021.35 1021.61 1021.90 1022.20 1022.50 1022.75 1022.93 1023.01 1022.97 1022.83 1022.58 1022.27 1021.91 1021.55 1021.20 1020.89 1020.62
1019.02 1019.00 1019.00 1019.07 1019.22 1019.47 1019.79 1020.13 1020.45 1020.69 1020.83 1020.87 1020.81 1020.70 1020.57 1020.47 1020.42 1020.44 1020.52 1020.64 1020.79 1020.93 1021.05 1021.16 1021.27 1021.40 1021.58 1021.82 1022.13 1022.49 1022.88 1023.27 1023.60 1023.83 1023.95 1023.94 1023.79 1023.54 1023.22 1022.85 1022.47 1022.11 1021.79
1019.06 1019.04 1019.03 1019.08 1019.24 1019.50 1019.84 1020.23 1020.59 1020.88 1021.06 1021.12 1021.08 1020.98 1020.87 1020.78 1020.75 1020.80 1020.90 1021.05 1021.21 1021.35 1021.45 1021.52 1021.58 1021.65 1021.78 1021.98 1022.29 1022.68 1023.14 1023.62 1024.08 1024.47 1024.74 1024.87 1024.85 1024.70 1024.45 1024.12 1023.76 1023.38 1023.02
1019.01 1019.00 1018.99 1019.03 1019.18 1019.44 1019.80 1020.21 1020.61 1020.94 1021.17 1021.27 1021.27 1021.20 1021.12 1021.06 1021.06 1021.14 1021.27 1021.44 1021.62 1021.75 1021.84 1021.88 1021.90 1021.92 1021.99 1022.15 1022.43 1022.82 1023.30 1023.84 1024.39 1024.89 1025.28 1025.55 1025.66 1025.64 1025.48 1025.23 1024.91 1024.55 1024.18
1018.85 1018.87 1018.87 1018.91 1019.05 1019.31 1019.67 1020.09 1020.52 1020.89 1021.17 1021.33 1021.38 1021.37 1021.33 1021.31 1021.35 1021.46 1021.63 1021.82 1022.01 1022.16 1022.24 1022.27 1022.26 1022.24 1022.27 1022.38 1022.61 1022.97 1023.43 1023.98 1024.55 1025.10 1025.58 1025.95 1026.18 1026.27 1026.23 1026.08 1025.83 1025.52 1025.17
Thickness
5759 5761 5761 5761 5760 5758 5757 5755 5753 5752 5750 5749 5748 5747 5746 5745 5744 5743 5743 5742 5742 5742 5742 5743 5743 5744 5744 5745 5746 5747 5749 5750 5752 5753 5755 5756 5757 5758 5760 5761 5763 5765 5766
5761 5761 5760 5759 5758 5756 5754 5753 5751 5750 5748 5747 5746 5745 5744 5743 5742 5741 5740 5740 5739 5739 5739 5740 5741 5741 5742 5743 5744 5745 5747 5748 5750 5751 5753 5754 5755 5757 5758 5760 5761 5763 5765
5761 5760 5759 5757 5756 5754 5753 5751 5749 5748 5746 5745 5744 5743 5741 5740 5739 5739 5738 5737 5737 5737 5736 5737 5738 5739 5739 5740 5742 5743 5745 5746 5748 5749 5751 5752 5753 5755 5756 5758 5760 5761 5763
5760 5758 5757 5756 5754 5753 5751 5749 5748 5746 5744 5743 5742 5740 5739 5738 5737 5736 5736 5735 5734 5734 5734 5734 5735 5736 5737 5738 5739 5741 5743 5744 5746 5747 5748 5750 5751 5753 5755 5756 5758 5759 5761
5758 5757 5755 5754 5752 5750 5749 5747 5746 5744 5742 5741 5740 5739 5737 5736 5735 5734 5733 5733 5732 5732 5732 5732 5732 5733 5734 5735 5737 5739 5740 5742 5743 5744 5746 5748 5749 5751 5753 5755 5756 5758 5759
5756 5755 5753 5751 5750 5748 5747 5745 5744 5742 5741 5739 5738 5737 5736 5734 5733 5732 5731 5730 5729 5729 5729 5729 5730 5731 5732 5733 5734 5736 5738 5739 5741 5742 5744 5745 5747 5749 5751 5753 5754 5756 5758
5754 5753 5751 5750 5748 5747 5745 5743 5742 5740 5739 5738 5736 5735 5734 5732 5731 5730 5729 5728 5727 5727 5727 5727 5728 5728 5729 5731 5732 5733 5735 5736 5738 5739 5741 5743 5745 5747 5749 5751 5752 5754 5756
5753 5751 5750 5748 5747 5745 5743 5742 5740 5739 5738 5736 5735 5733 5732 5731 5729 5728 5727 5726 5725 5725 5725 5725 5725 5726 5727 5728 5730 5731 5732 5734 5735 5737 5739 5741 5743 5745 5747 5748 5750 5752 5754
5751 5749 5748 5747 5745 5744 5742 5740 5739 5738 5736 5735 5734 5732 5731 5729 5728 5726 5725 5724 5724 5723 5723 5723 5724 5724 5725 5726 5727 5728 5729 5731 5732 5734 5737 5739 5741 5743 5745 5746 5748 5750 5753
5748 5747 5746 5745 5743 5742 5740 5739 5737 5736 5735 5734 5732 5731 5729 5728 5726 5725 5723 5723 5722 5721 5721 5721 5721 5722 5722 5723 5724 5725 5727 5728 5730 5732 5734 5736 5739 5741 5742 5744 5745 5748 5751
5746 5745 5744 5743 5742 5740 5739 5738 5736 5735 5733 5732 5731 5729 5727 5726 5724 5722 5721 5721 5720 5719 5719 5718 5719 5719 5719 5720 5721 5722 5723 5725 5727 5729 5731 5734 5736 5738 5740 5741 5743 5745 5748
5742 5743 5743 5742 5741 5739 5738 5736 5735 5733 5732 5731 5729 5727 5726 5724 5722 5720 5719 5718 5717 5717 5716 5715 5715 5715 5715 5716 5717 5719 5720 5721 5723 5726 5728 5731 5734 5736 5737 5739 5740 5742 5745
5742 5742 5742 5741 5740 5738 5736 5735 5733 5732 5731 5729 5728 5726 5724 5722 5720 5719 5718 5716 5715 5714 5713 5712 5712 5712 5712 5713 5714 5715 5717 5718 5720 5722 5725 5728 5730 5732 5734 5736 5737 5739 5742
5741 5741 5741 5740 5739 5737 5735 5734 5732 5731 5729 5728 5726 5725 5722 5720 5718 5716 5715 5714 5712 5712 5710 5710 5709 5709 5709 5710 5710 5712 5713 5715 5716 5718 5721 5724 5726 5728 5730 5732 5734 5736 5739
5740 5740 5740 5740 5738 5736 5734 5733 5731 5730 5728 5727 5725 5723 5721 5719 5717 5715 5713 5712 5711 5710 5709 5708 5707 5707 5706 5707 5707 5708 5710 5711 5713 5715 5717 5720 5722 5724 5726 5728 5731 5733 5735
5739 5739 5739 5738 5736 5735 5733 5731 5730 5729 5727 5726 5724 5722 5721 5718 5716 5714 5712 5711 5709 5708 5707 5706 5705 5704 5704 5704 5704 5705 5706 5708 5710 5711 5713 5716 5718 5720 5722 5724 5727 5730 5732
5738 5738 5737 5736 5735 5733 5732 5730 5729 5727 5726 5725 5723 5721 5720 5718 5716 5714 5712 5710 5708 5707 5706 5705 5704 5703 5702 5701 5701 5702 5703 5705 5706 5708 5710 5712 5714 5716 5718 5721 5724 5726 5729
5737 5736 5736 5736 5733 5732 5730 5729 5727 5726 5725 5723 5722 5720 5719 5717 5715 5713 5711 5709 5707 5706 5705 5704 5702 5700 5698 5698 5697 5698 5700 5702 5703 5705 5706 5708 5710 5712 5714 5717 5720 5723 5725
5736 5735 5734 5733 5732 5730 5728 5727 5726 5725 5724 5722 5721 5719 5718 5716 5714 5713 5710 5708 5707 5706 5704 5703 5700 5698 5696 5695 5695 5695 5696 5698 5699 5701 5703 5704 5706 5708 5711 5713 5716 5719 5722
5735 5734 5732 5731 5729 5728 5726 5725 5724 5723 5722 5721 5719 5718 5716 5715 5714 5712 5710 5708 5707 5705 5702 5701 5698 5697 5695 5694 5694 5693 5693 5695 5696 5698 5699 5701 5703 5705 5707 5710 5712 5715 5717
5732 5731 5730 5729 5727 5726 5724 5722 5720 5718 5718 5718 5717 5716 5716 5715 5713 5712 5709 5708 5706 5704 5701 5700 5698 5696 5693 5693 5692 5689 5690 5692 5693 5694 5696 5698 5699 5701 5704 5706 5708 5710 5713
5730 5729 5728 5727 5726 5726 5724 5722 5720 5718 5717 5716 5715 5715 5714 5714 5713 5711 5709 5707 5705 5704 5701 5700 5698 5695 5692 5691 5690 5686 5683 5684 5687 5690 5692 5693 5695 5698 5700 5701 5704 5706 5709
5727 5727 5728 5726 5726 5725 5723 5722 5719 5717 5715 5714 5713 5712 5712 5712 5712 5710 5708 5707 5705 5703 5700 5699 5698 5696 5691 5689 5689 5687 5682 5678 5680 5684 5686 5689 5691 5693 5695 5698 5700 5702 5705
5727 5727 5726 5725 5725 5724 5723 5721 5718 5714 5711 5711 5710 5710 5711 5711 5710 5709 5708 5707 5705 5703 5701 5700 5698 5696 5693 5689 5687 5687 5687 5685 5682 5679 5682 5685 5687 5688 5690 5693 5695 5698 5701
5727 5726 5725 5724 5723 5723 5722 5721 5718 5714 5712 5710 5710 5709 5709 5709 5709 5708 5707 5706 5704 5702 5701 5699 5697 5696 5693 5690 5687 5686 5686 5685 5684 5681 5678 5680 5682 5684 5686 5688 5691 5694 5697
5726 5725 5724 5722 5722 5721 5720 5719 5717 5714 5712 5710 5709 5708 5707 5707 5707 5707 5706 5705 5703 5702 5700 5698 5697 5695 5692 5690 5688 5687 5686 5685 5683 5681 5677 5676 5676 5679 5682 5685 5687 5689 5692